Weather Roundup
Issued by NWS Springfield, MO

Home | Current Version | Previous Version | Graphics & Text | Print | Product List | Glossary On
Versions: 1 2 3 4 5 6 7 8 9 10 11 12 13 14 15 16 17 18 19 20 21 22 23 24 25 26 27 28 29 30 31 32 33 34 35 36 37 38 39 40 41 42 43 44 45 46 47 48 49 50
000
NZUS99 KSGF 221407
HRRSGF

HOURLY WEATHER
NATIONAL WEATHER SERVICE SPRINGFIELD MO
900 AM CDT SUN OCT 22 2017

......SGF CWA......

CITY           SKY/WX    TMP DP  RH WIND       PRES   REMARKS
SPRINGFIELD    LGT RAIN  52  52 100 NW13G21   30.04R
JOPLIN         CLOUDY    51  51 100 N10       30.10R
WEST PLAINS    CLOUDY    59  58  96 E6        29.97S
ROLLA          FOG       56  56 100 NW8       29.98R VSB 1/4
OSAGE BEACH    LGT RAIN  53  52  96 NW7       30.02R
BRANSON        RAIN      55  55 100 NW13      30.05R VSB 1

......SURROUNDING SGF CWA......

CITY           SKY/WX    TMP DP  RH WIND       PRES   REMARKS
CHANUTE        SUNNY     51  46  83 NW8       30.13R
PARSONS        MOSUNNY   51  47  86 NW9       30.14R
COFFEYVILLE    SUNNY     52  48  86 NW8       30.13R
EMPORIA        SUNNY     47  42  83 W6        30.15R
GROVE OK       CLOUDY    54  52  94 NW8       30.12R
ROGERS AR      LGT RAIN  53  52  96 NW10      30.08R FOG
SILOAM SPRINGS CLOUDY    53  52  96 NW13      30.09R
HARRISON AR    LGT RAIN  57  57 100 W5        30.05R
NEAR YELLVILLE CLOUDY    60  59  96 W8        30.03R

......KANSAS AND MISSOURI......

CITY           SKY/WX    TMP DP  RH WIND       PRES   REMARKS
KANSAS CTY INT PTSUNNY   48  47  96 NW6       30.09R
DOWNTOWN KC    MOSUNNY   51  48  89 NW6       30.09R
COLUMBIA       LGT RAIN  53  53 100 NW15      30.01R
SEDALIA        LGT RAIN  51  51 100 N13       30.06R
ST JOSEPH      SUNNY     50  47  89 CALM      30.11R
ST LOUIS       CLOUDY    63  62  97 NW7       29.93R
SPIRIT OF STL  CLOUDY    62  61  96 W5        29.94R
KIRKSVILLE     LGT RAIN  50  50 100 NW7       30.06R
WICHITA        MOSUNNY   49  42  77 NW7       30.18R
TOPEKA         SUNNY     49  46  90 W6        30.13R
OLATHE         MOSUNNY   48  46  93 NW12      30.10R

......TENNESSEE......

CITY           SKY/WX    TMP DP  RH WIND       PRES   REMARKS
MEMPHIS        PTSUNNY   70  64  81 S10       29.99S
NASHVILLE      MOSUNNY   70  58  65 S16G23    30.16R

......ARKANSAS.......

CITY           SKY/WX    TMP DP  RH WIND       PRES   REMARKS
FAYETTEVILLE   CLOUDY    55  55 100 NW9       30.07R FOG
FT SMITH       LGT RAIN  59  59 100 W12       30.08R FOG
LITTLE ROCK    CLOUDY    60  60 100 W12       30.04R

......OKLAHOMA.......

CITY           SKY/WX    TMP DP  RH WIND       PRES   REMARKS
TULSA          CLOUDY    52  50  93 NW10      30.13R
PONCA CITY     SUNNY     49  43  80 NW7       30.18R
MCALESTER      CLOUDY    57  54  89 NW9       30.13R
OKLAHOMA CITY  MOSUNNY   51  46  83 N10       30.17S

......IOWA............

CITY           SKY/WX    TMP DP  RH WIND       PRES   REMARKS
DES MOINES     CLOUDY    51  44  77 NW8       30.05R
QUAD CITIES    LGT RAIN  56  52  86 NW7       29.95S

......ILLINOIS........

CITY           SKY/WX    TMP DP  RH WIND       PRES   REMARKS
QUINCY         LGT RAIN  54  52  93 N10       29.97R
CHICAGO        CLOUDY    67  57  70 S21       29.94S




USA.gov is the U.S. government's official web portal to all federal, state and local government web resources and services.